CW5229 Weather Reports


Display with metric or nautical units.
time (UTC)temp
F
wind
direction
speed
MPH
gust
MPH
rain 1hr
in
rain 24hr
in
rain mn
in
humidity
%
barometer
mb
20260903014511 84 290 0.0 1.0 0.00 0.00 0.00 79 1010.5
20260903013010 84 303 0.0 1.0 0.00 0.00 0.00 78 1010.4
20260903011505 85 134 0.0 2.0 0.00 0.00 0.00 76 1010.3
20260903010003 86 252 0.0 1.0 0.00 0.00 0.00 75 1010.2
20260903004602 86 187 0.0 3.0 0.00 0.00 0.00 74 1010.1
20260903003110 87 193 0.0 4.0 0.00 0.00 0.00 72 1010.0
20260903001550 88 229 0.0 2.0 0.00 0.00 0.00 70 1010.1
20260903000057 89 153 0.0 4.0 0.00 0.00 0.00 69 1010.1
20260902234542 90 270 0.0 4.0 0.00 0.00 0.00 68 1010.2
20260902233043 91 273 0.0 2.0 0.00 0.00 0.00 66 1010.3
20260902231511 91 251 0.0 5.0 0.00 0.00 0.00 64 1010.2
20260902230006 92 159 0.0 4.0 0.00 0.00 0.00 64 1010.2
20260902224503 93 218 1.0 6.0 0.00 0.00 0.00 63 1010.3
20260902223007 93 262 1.0 7.0 0.00 0.00 0.00 62 1010.4
20260902221608 94 247 1.0 8.0 0.00 0.00 0.00 61 1010.4
20260902220056 96 266 2.0 5.0 0.00 0.00 0.00 57 1010.4
20260902214617 96 255 3.0 11.0 0.00 0.00 0.00 57 1010.5
20260902213053 96 303 2.0 5.0 0.00 0.00 0.00 56 1010.6
20260902211553 96 176 1.0 5.0 0.00 0.00 0.00 57 1010.5
20260902210053 95 117 1.0 4.0 0.00 0.00 0.00 59 1010.6
20260902204548 95 211 2.0 9.0 0.00 0.00 0.00 57 1010.7
20260902203046 97 290 1.0 5.0 0.00 0.00 0.00 54 1010.7
20260902201557 96 247 2.0 7.0 0.00 0.00 0.00 58 1010.7
20260902200047 97 169 1.0 6.0 0.00 0.00 0.00 56 1010.9
20260902194546 97 237 2.0 7.0 0.00 0.00 0.00 53 1011.0
20260902193037 97 193 1.0 4.0 0.00 0.00 0.00 56 1011.2
20260902191535 97 238 1.0 7.0 0.00 0.00 0.00 55 1011.3
20260902190031 97 236 1.0 5.0 0.00 0.00 0.00 55 1011.5
20260902184526 97 198 2.0 5.0 0.00 0.00 0.00 58 1011.7
20260902183023 96 259 0.0 5.0 0.00 0.00 0.00 58 1011.5
20260902181521 96 158 1.0 5.0 0.00 0.00 0.00 58 1011.7
20260902180019 95 184 2.0 9.0 0.00 0.00 0.00 56 1011.7
20260902174551 95 167 1.0 5.0 0.00 0.00 0.00 59 1011.9
20260902173045 95 230 1.0 5.0 0.00 0.00 0.00 60 1012.0
20260902171512 94 310 1.0 5.0 0.00 0.00 0.00 61 1012.2
20260902170009 94 259 0.0 6.0 0.00 0.00 0.00 60 1012.1
20260902164513 93 284 1.0 6.0 0.00 0.00 0.00 62 1012.4
20260902163008 93 241 1.0 4.0 0.00 0.00 0.00 61 1012.5
20260902161517 92 292 2.0 4.0 0.00 0.00 0.00 62 1012.4
20260902160008 91 163 0.0 3.0 0.00 0.00 0.00 64 1012.3
20260902154510 90 133 1.0 5.0 0.00 0.00 0.00 66 1012.3
20260902153001 89 312 0.0 5.0 0.00 0.00 0.00 68 1012.4
20260902151502 88 237 2.0 5.0 0.00 0.00 0.00 68 1012.3
20260902150002 87 160 1.0 5.0 0.00 0.00 0.00 69 1012.3
20260902144532 87 192 1.0 5.0 0.00 0.00 0.00 70 1012.4
20260902143031 87 261 1.0 9.0 0.00 0.00 0.00 69 1012.4
20260902141534 86 171 1.0 5.0 0.00 0.00 0.00 70 1012.4
20260902140027 85 269 0.0 5.0 0.00 0.00 0.00 71 1012.5
20260902134530 85 257 1.0 4.0 0.00 0.01 0.00 72 1012.6
20260902133033 82 285 0.0 3.0 0.00 0.01 0.00 76 1012.8
20260902131525 81 165 0.0 2.0 0.00 0.01 0.00 78 1012.9
20260902130027 80 217 1.0 3.0 0.00 0.01 0.00 78 1013.0
20260902124526 79 181 0.0 1.0 0.00 0.01 0.00 79 1012.9
20260902124522 79 167 0.0 1.0 0.00 0.01 0.00 79 1012.9
20260902123021 77 252 0.0 0.0 0.00 0.01 0.00 83 1013.0
20260902121520 76 214 0.0 0.0 0.00 0.01 0.00 83 1013.0
20260902120045 0 0.0 0.0 0.00 0.01 0.00 1012.8
20260902114549 0 0.0 0.0 0.00 0.01 0.00 1012.8
20260902113050 0 0.0 0.0 0.00 0.01 0.00 1012.8
20260902111530 0 0.0 0.0 0.00 0.01 0.00 1012.6
20260902110025 0 266 0.0 1.0 0.00 0.01 0.00 1012.6
20260902104523 75 248 0.0 1.0 0.00 0.02 0.00 85 1012.6
20260902103018 74 207 0.0 1.0 0.00 0.02 0.00 86 1012.7
20260902101521 75 254 0.0 0.0 0.00 0.02 0.00 86 1012.7
20260902100019 75 257 0.0 1.0 0.00 0.02 0.00 86 1012.4
20260902094515 75 255 0.0 1.0 0.00 0.05 0.00 86 1012.4
20260902093016 75 255 0.0 1.0 0.00 0.05 0.00 86 1012.4
20260902091511 76 271 0.0 0.0 0.00 0.05 0.00 85 1012.4
20260902090010 76 271 0.0 0.0 0.00 0.05 0.00 85 1012.4
20260902084508 76 271 0.0 1.0 0.00 0.08 0.00 84 1012.3
20260902083007 77 218 0.0 1.0 0.00 0.08 0.00 84 1012.3
20260902081508 77 274 0.0 2.0 0.00 0.08 0.00 84 1012.1
20260902080005 77 263 0.0 1.0 0.00 0.08 0.00 85 1012.1
20260902074504 76 255 0.0 3.0 0.00 0.08 0.00 85 1012.1
20260902073037 76 208 0.0 1.0 0.00 0.08 0.00 85 1012.0
20260902071532 77 207 0.0 1.0 0.00 0.08 0.00 85 1012.1
20260902070030 77 265 0.0 2.0 0.00 0.08 0.00 85 1012.1
20260902064534 77 177 0.0 2.0 0.00 0.08 0.00 85 1012.1
20260902063030 77 274 0.0 1.0 0.00 0.08 0.00 85 1012.1
20260902061542 77 209 0.0 0.0 0.00 0.08 0.00 86 1012.0
20260902060026 77 238 0.0 0.0 0.00 0.08 0.00 85 1012.1
20260902054626 77 245 0.0 1.0 0.00 0.08 0.00 85 1012.1
20260902053022 78 229 0.0 2.0 0.00 0.08 0.00 84 1012.2
20260902051520 78 271 0.0 2.0 0.00 0.08 0.00 83 1012.2
20260902050017 79 151 0.0 1.0 0.00 0.08 0.00 82 1012.2
20260902044524 79 207 0.0 1.0 0.00 0.08 0.00 82 1012.2
20260902043017 79 257 0.0 0.0 0.00 0.08 0.00 81 1012.3
20260902041514 79 160 0.0 0.0 0.00 0.08 0.00 81 1012.3
20260902040012 79 160 0.0 0.0 0.00 0.08 0.00 82 1012.4
20260902034512 79 160 0.0 0.0 0.00 0.08 0.00 82 1012.2
20260902033010 79 157 0.0 0.0 0.00 0.08 0.00 83 1012.2
20260902031508 80 157 0.0 0.0 0.00 0.08 0.00 83 1012.3
20260902030004 80 217 0.0 0.0 0.00 0.08 0.00 82 1012.3
20260902024502 81 264 0.0 0.0 0.00 0.08 0.00 82 1012.2
20260902023113 81 276 0.0 0.0 0.00 0.08 0.00 82 1012.2
20260902021602 82 270 0.0 1.0 0.00 0.08 0.00 82 1012.1
20260902020029 82 288 0.0 1.0 0.00 0.08 0.00 82 1011.9